Location: Wapato
(46.4478°N, 120.4212°W)
Time: 22:13:26
(UTC+00:00)

Vanguard 1 Rocket - Pass Details

Date: 13 May 2026
Orbit: 656 x 4211 km, 34.3° (Epoch: 2 June)

Event Time Altitude Azimuth Distance (km) Brightness Sun altitude
Rises 21:51:36 0° 200° (SSW) 3,996 11.2 53.6°
Reaches altitude 10° 21:54:37 10° 185° (S) 3,410 10.9 53.2°
Maximum altitude 22:01:14 23° 136° (SE) 3,335 10.5 52.4°
Drops below altitude 10° 22:11:24 10° 93° (E) 5,473 11.2 50.9°
Sets 22:18:08 0° 82° (E) 7,166 11.6 50.0°
